Regional Weather Roundup
Issued by NWS

Home | Current Version | Previous Version | Text Only | Print | Product List | Glossary On
Versions: 1 2 3 4 5 6 7 8 9 10 11 12 13 14 15 16 17 18 19 20 21 22 23 24 25 26 27 28 29 30 31 32 33 34 35 36 37 38 39 40 41 42 43 44 45 46 47 48 49 50
000
ASUS45 KCYS 140110
RWRWY

WYOMING REGIONAL WEATHER ROUNDUP
NATIONAL WEATHER SERVICE CHEYENNE WY
700 PM MDT SUN JUL 13 2014

NOTE:  "FAIR" INDICATES FEW OR NO CLOUDS BELOW 12,000 FEET
WITH NO SIGNIFICANT WEATHER AND/OR OBSTRUCTIONS TO VISIBILITY.

WYZ001-140200-
YELLOWSTONE NATIONAL PARK

CITY           SKY/WX    TMP DP  RH WIND       PRES   REMARKS
LK YELLOWSTONE   N/A     70  44  39 CALM      30.47F
W YELLOWSTONE  NOT AVBL

$$
WYZ002>013-054>058-071-098>099-140200-
NORTHERN WYOMING

CITY           SKY/WX    TMP DP  RH WIND       PRES   REMARKS
JACKSON        NOT AVBL
CODY           MOSUNNY   81  46  30 N12       30.24S
GREYBULL       SUNNY     91  33  12 N14G21    30.13
WORLAND        SUNNY     88  47  24 NE6       30.14
SHERIDAN       SUNNY     84  45  25 N16       30.18
BUFFALO        SUNNY     80  43  26 N14       30.26R
GILLETTE       SUNNY     83  44  25 N15       30.19R
HULETT         FAIR      77  46  33 MISG      30.21
NEWCASTLE      FAIR      81  41  24 N10       30.17

$$
WYZ014>020-022>026-101>103-140200-
CENTRAL WYOMING

CITY           SKY/WX    TMP DP  RH WIND       PRES   REMARKS
BIG PINEY      SUNNY     84  34  16 N16       30.35
PINEDALE       CLEAR     79  37  22 NW15      30.37S
DUBOIS         FAIR      73  41  31 SE16G24   30.38S
LANDER         MOSUNNY   84  45  25 NE8       30.27
RIVERTON       MOSUNNY   83  43  24 E9        30.26
CASPER         MOSUNNY   83  43  24 N15G23    30.23R
DOUGLAS        MOSUNNY   84  43  23 N13       30.20S

$$
WYZ021-027>030-104>119-140200-
SOUTHERN WYOMING

CITY           SKY/WX    TMP DP  RH WIND       PRES   REMARKS
EVANSTON       SUNNY     85  40  20 VRB7      30.34
KEMMERER       CLEAR    N/A N/A N/A NW8         N/A
ROCK SPRINGS   CLOUDY    86  38  18 N8        30.30
DIXON          FAIR      83  42  23 NE15      30.30R
RAWLINS        SUNNY     81  40  23 N13       30.32F
SARATOGA       FAIR      79  43  27 N10       30.35S
LARAMIE        MOSUNNY   75  47  36 N9        30.36S
CHEYENNE       MOSUNNY   77  49  37 NW6       30.30S
TORRINGTON     SUNNY     82  59  45 SE8       30.13F

$$


USA.gov is the U.S. government's official web portal to all federal, state and local government web resources and services.